owner,sensor,date,latitude,longitude,air_temperature,qcFlag 
DISL,ioos:station:DISL:MHPA:1,2011-02-01T00:00:00Z,30.6671,-87.9365,15.27,1111122 
DISL,ioos:station:DISL:MHPA:1,2011-02-01T00:30:00Z,30.6671,-87.9365,14.99,1111122 
DISL,ioos:station:DISL:MHPA:1,2011-02-01T01:00:00Z,30.6671,-87.9365,14.78,1111122 
DISL,ioos:station:DISL:MHPA:1,2011-02-01T01:30:00Z,30.6671,-87.9365,14.32,1111122 
DISL,ioos:station:DISL:MHPA:1,2011-02-01T02:00:00Z,30.6671,-87.9365,14.4,1111122 
DISL,ioos:station:DISL:MHPA:1,2011-02-01T02:30:00Z,30.6671,-87.9365,14.26,1111122 
DISL,ioos:station:DISL:MHPA:1,2011-02-01T03:00:00Z,30.6671,-87.9365,14.23,1111122 
DISL,ioos:station:DISL:MHPA:1,2011-02-01T03:30:00Z,30.6671,-87.9365,14.21,1111122 
DISL,ioos:station:DISL:MHPA:1,2011-02-01T04:00:00Z,30.6671,-87.9365,14.2,1111122 
DISL,ioos:station:DISL:MHPA:1,2011-02-01T04:30:00Z,30.6671,-87.9365,14.1,1111122 
DISL,ioos:station:DISL:MHPA:1,2011-02-01T05:00:00Z,30.6671,-87.9365,13.87,1111122 
DISL,ioos:station:DISL:MHPA:1,2011-02-01T05:30:00Z,30.6671,-87.9365,13.72,1111122 
DISL,ioos:station:DISL:MHPA:1,2011-02-01T06:00:00Z,30.6671,-87.9365,13.51,1111122 
DISL,ioos:station:DISL:MHPA:1,2011-02-01T06:30:00Z,30.6671,-87.9365,13.22,1111122 
DISL,ioos:station:DISL:MHPA:1,2011-02-01T07:00:00Z,30.6671,-87.9365,13.16,1111122 
DISL,ioos:station:DISL:MHPA:1,2011-02-01T07:30:00Z,30.6671,-87.9365,13.19,1111122 
DISL,ioos:station:DISL:MHPA:1,2011-02-01T08:00:00Z,30.6671,-87.9365,13.3,1111122 
DISL,ioos:station:DISL:MHPA:1,2011-02-01T08:30:00Z,30.6671,-87.9365,13.48,1111122 
DISL,ioos:station:DISL:MHPA:1,2011-02-01T09:00:00Z,30.6671,-87.9365,13.57,1111122 
DISL,ioos:station:DISL:MHPA:1,2011-02-01T09:30:00Z,30.6671,-87.9365,13.8,1111122 
DISL,ioos:station:DISL:MHPA:1,2011-02-01T10:00:00Z,30.6671,-87.9365,13.83,1111122 
DISL,ioos:station:DISL:MHPA:1,2011-02-01T10:30:00Z,30.6671,-87.9365,13.87,1111122 
DISL,ioos:station:DISL:MHPA:1,2011-02-01T11:00:00Z,30.6671,-87.9365,13.83,1111122 
DISL,ioos:station:DISL:MHPA:1,2011-02-01T11:30:00Z,30.6671,-87.9365,14.12,1111122 
DISL,ioos:station:DISL:MHPA:1,2011-02-01T12:00:00Z,30.6671,-87.9365,14.61,1111122 
DISL,ioos:station:DISL:MHPA:1,2011-02-01T12:30:00Z,30.6671,-87.9365,14.83,1111122 
DISL,ioos:station:DISL:MHPA:1,2011-02-01T13:00:00Z,30.6671,-87.9365,15.3,1111122 
DISL,ioos:station:DISL:MHPA:1,2011-02-01T13:30:00Z,30.6671,-87.9365,15.88,1111122 
DISL,ioos:station:DISL:MHPA:1,2011-02-01T14:00:00Z,30.6671,-87.9365,16.29,1111122 
DISL,ioos:station:DISL:MHPA:1,2011-02-01T14:30:00Z,30.6671,-87.9365,17.37,1111122 
DISL,ioos:station:DISL:MHPA:1,2011-02-01T15:00:00Z,30.6671,-87.9365,17.93,1111122 
DISL,ioos:station:DISL:MHPA:1,2011-02-01T15:30:00Z,30.6671,-87.9365,18.56,1111122 
DISL,ioos:station:DISL:MHPA:1,2011-02-01T16:00:00Z,30.6671,-87.9365,18.82,1111122 
DISL,ioos:station:DISL:MHPA:1,2011-02-01T16:30:00Z,30.6671,-87.9365,18.88,1111122 
DISL,ioos:station:DISL:MHPA:1,2011-02-01T17:00:00Z,30.6671,-87.9365,19.09,1111122 
DISL,ioos:station:DISL:MHPA:1,2011-02-01T17:30:00Z,30.6671,-87.9365,20.03,1111122 
DISL,ioos:station:DISL:MHPA:1,2011-02-01T18:00:00Z,30.6671,-87.9365,20.47,1111122 
DISL,ioos:station:DISL:MHPA:1,2011-02-01T18:30:00Z,30.6671,-87.9365,20.41,1111122 
DISL,ioos:station:DISL:MHPA:1,2011-02-01T19:00:00Z,30.6671,-87.9365,20.43,1111122 
DISL,ioos:station:DISL:MHPA:1,2011-02-01T19:30:00Z,30.6671,-87.9365,20.78,1111122 
DISL,ioos:station:DISL:MHPA:1,2011-02-01T20:00:00Z,30.6671,-87.9365,20.65,1111122 
DISL,ioos:station:DISL:MHPA:1,2011-02-01T20:30:00Z,30.6671,-87.9365,20.6,1111122 
DISL,ioos:station:DISL:MHPA:1,2011-02-01T21:00:00Z,30.6671,-87.9365,19.98,1111122 
DISL,ioos:station:DISL:MHPA:1,2011-02-01T21:30:00Z,30.6671,-87.9365,20.21,1111122 
DISL,ioos:station:DISL:MHPA:1,2011-02-01T22:00:00Z,30.6671,-87.9365,19.66,1111122 
DISL,ioos:station:DISL:MHPA:1,2011-02-01T22:30:00Z,30.6671,-87.9365,19.27,1111122 
DISL,ioos:station:DISL:MHPA:1,2011-02-01T23:00:00Z,30.6671,-87.9365,19.35,1111122 
DISL,ioos:station:DISL:MHPA:1,2011-02-01T23:30:00Z,30.6671,-87.9365,18.75,1111122 
DISL,ioos:station:DISL:MHPA:1,2011-02-02T00:00:00Z,30.6671,-87.9365,17.15,1111122 
DISL,ioos:station:DISL:MHPA:1,2011-02-02T00:30:00Z,30.6671,-87.9365,17.53,1111122 
DISL,ioos:station:DISL:MHPA:1,2011-02-02T01:00:00Z,30.6671,-87.9365,16.71,1111122 
DISL,ioos:station:DISL:MHPA:1,2011-02-02T01:30:00Z,30.6671,-87.9365,16.64,1111122 
DISL,ioos:station:DISL:MHPA:1,2011-02-02T02:00:00Z,30.6671,-87.9365,15.57,1111122 
DISL,ioos:station:DISL:MHPA:1,2011-02-02T02:30:00Z,30.6671,-87.9365,15.78,1111122 
DISL,ioos:station:DISL:MHPA:1,2011-02-02T03:00:00Z,30.6671,-87.9365,15.38,1111122 
DISL,ioos:station:DISL:MHPA:1,2011-02-02T03:30:00Z,30.6671,-87.9365,15.13,1111122 
DISL,ioos:station:DISL:MHPA:1,2011-02-02T04:00:00Z,30.6671,-87.9365,15.16,1111122 
DISL,ioos:station:DISL:MHPA:1,2011-02-02T04:30:00Z,30.6671,-87.9365,14.73,1111122 
DISL,ioos:station:DISL:MHPA:1,2011-02-02T05:00:00Z,30.6671,-87.9365,13.08,1111122 
DISL,ioos:station:DISL:MHPA:1,2011-02-02T05:30:00Z,30.6671,-87.9365,12.33,1111122 
DISL,ioos:station:DISL:MHPA:1,2011-02-02T06:00:00Z,30.6671,-87.9365,11.09,1111122 
DISL,ioos:station:DISL:MHPA:1,2011-02-02T06:30:00Z,30.6671,-87.9365,9.74,1111122 
DISL,ioos:station:DISL:MHPA:1,2011-02-02T07:00:00Z,30.6671,-87.9365,8.0,1111122 
DISL,ioos:station:DISL:MHPA:1,2011-02-02T07:30:00Z,30.6671,-87.9365,7.74,1111122 
DISL,ioos:station:DISL:MHPA:1,2011-02-02T08:00:00Z,30.6671,-87.9365,7.55,1111122 
DISL,ioos:station:DISL:MHPA:1,2011-02-02T08:30:00Z,30.6671,-87.9365,5.728,1111122 
DISL,ioos:station:DISL:MHPA:1,2011-02-02T09:00:00Z,30.6671,-87.9365,5.334,1111122 
DISL,ioos:station:DISL:MHPA:1,2011-02-02T09:30:00Z,30.6671,-87.9365,4.939,1111122 
DISL,ioos:station:DISL:MHPA:1,2011-02-02T10:00:00Z,30.6671,-87.9365,4.478,1111122 
DISL,ioos:station:DISL:MHPA:1,2011-02-02T10:30:00Z,30.6671,-87.9365,3.906,1111122 
DISL,ioos:station:DISL:MHPA:1,2011-02-02T11:00:00Z,30.6671,-87.9365,3.257,1111122 
DISL,ioos:station:DISL:MHPA:1,2011-02-02T11:30:00Z,30.6671,-87.9365,2.579,1111122 
DISL,ioos:station:DISL:MHPA:1,2011-02-02T12:00:00Z,30.6671,-87.9365,1.772,1111122 
DISL,ioos:station:DISL:MHPA:1,2011-02-02T12:30:00Z,30.6671,-87.9365,1.468,1111122 
DISL,ioos:station:DISL:MHPA:1,2011-02-02T13:00:00Z,30.6671,-87.9365,0.974,1111122 
DISL,ioos:station:DISL:MHPA:1,2011-02-02T13:30:00Z,30.6671,-87.9365,0.964,1111122 
DISL,ioos:station:DISL:MHPA:1,2011-02-02T14:00:00Z,30.6671,-87.9365,1.201,1111122 
DISL,ioos:station:DISL:MHPA:1,2011-02-02T14:30:00Z,30.6671,-87.9365,1.305,1111122 
DISL,ioos:station:DISL:MHPA:1,2011-02-02T15:00:00Z,30.6671,-87.9365,1.467,1111122 
DISL,ioos:station:DISL:MHPA:1,2011-02-02T15:30:00Z,30.6671,-87.9365,1.609,1111122 
DISL,ioos:station:DISL:MHPA:1,2011-02-02T16:00:00Z,30.6671,-87.9365,1.941,1111122 
DISL,ioos:station:DISL:MHPA:1,2011-02-02T16:30:00Z,30.6671,-87.9365,2.169,1111122 
DISL,ioos:station:DISL:MHPA:1,2011-02-02T17:00:00Z,30.6671,-87.9365,2.293,1111122 
DISL,ioos:station:DISL:MHPA:1,2011-02-02T17:30:00Z,30.6671,-87.9365,1.952,1111122 
DISL,ioos:station:DISL:MHPA:1,2011-02-02T18:00:00Z,30.6671,-87.9365,2.37,1111122 
DISL,ioos:station:DISL:MHPA:1,2011-02-02T18:30:00Z,30.6671,-87.9365,2.675,1111122 
DISL,ioos:station:DISL:MHPA:1,2011-02-02T19:00:00Z,30.6671,-87.9365,2.931,1111122 
DISL,ioos:station:DISL:MHPA:1,2011-02-02T19:30:00Z,30.6671,-87.9365,3.179,1111122 
DISL,ioos:station:DISL:MHPA:1,2011-02-02T20:00:00Z,30.6671,-87.9365,3.237,1111122 
DISL,ioos:station:DISL:MHPA:1,2011-02-02T20:30:00Z,30.6671,-87.9365,3.104,1111122 
DISL,ioos:station:DISL:MHPA:1,2011-02-02T21:00:00Z,30.6671,-87.9365,3.569,1111122 
DISL,ioos:station:DISL:MHPA:1,2011-02-02T21:30:00Z,30.6671,-87.9365,3.684,1111122 
DISL,ioos:station:DISL:MHPA:1,2011-02-02T22:00:00Z,30.6671,-87.9365,3.816,1111122 
DISL,ioos:station:DISL:MHPA:1,2011-02-02T22:30:00Z,30.6671,-87.9365,3.846,1111122 
DISL,ioos:station:DISL:MHPA:1,2011-02-02T23:00:00Z,30.6671,-87.9365,4.064,1111122 
DISL,ioos:station:DISL:MHPA:1,2011-02-02T23:30:00Z,30.6671,-87.9365,3.922,1111122 
DISL,ioos:station:DISL:MHPA:1,2011-02-03T00:00:00Z,30.6671,-87.9365,3.474,1111122 
DISL,ioos:station:DISL:MHPA:1,2011-02-03T00:30:00Z,30.6671,-87.9365,2.893,1111122 
DISL,ioos:station:DISL:MHPA:1,2011-02-03T01:00:00Z,30.6671,-87.9365,2.267,1111122 
DISL,ioos:station:DISL:MHPA:1,2011-02-03T01:30:00Z,30.6671,-87.9365,2.151,1111122 
DISL,ioos:station:DISL:MHPA:1,2011-02-03T02:00:00Z,30.6671,-87.9365,2.275,1111122 
DISL,ioos:station:DISL:MHPA:1,2011-02-03T02:30:00Z,30.6671,-87.9365,2.255,1111122 
DISL,ioos:station:DISL:MHPA:1,2011-02-03T03:00:00Z,30.6671,-87.9365,2.179,1111122 
DISL,ioos:station:DISL:MHPA:1,2011-02-03T03:30:00Z,30.6671,-87.9365,2.121,1111122 
DISL,ioos:station:DISL:MHPA:1,2011-02-03T04:00:00Z,30.6671,-87.9365,2.226,1111122 
DISL,ioos:station:DISL:MHPA:1,2011-02-03T04:30:00Z,30.6671,-87.9365,2.075,1111122 
DISL,ioos:station:DISL:MHPA:1,2011-02-03T05:00:00Z,30.6671,-87.9365,2.16,1111122 
DISL,ioos:station:DISL:MHPA:1,2011-02-03T05:30:00Z,30.6671,-87.9365,2.245,1111122 
DISL,ioos:station:DISL:MHPA:1,2011-02-03T06:00:00Z,30.6671,-87.9365,2.179,1111122 
DISL,ioos:station:DISL:MHPA:1,2011-02-03T06:30:00Z,30.6671,-87.9365,2.312,1111122 
DISL,ioos:station:DISL:MHPA:1,2011-02-03T07:00:00Z,30.6671,-87.9365,2.274,1111122 
DISL,ioos:station:DISL:MHPA:1,2011-02-03T07:30:00Z,30.6671,-87.9365,2.331,1111122 
DISL,ioos:station:DISL:MHPA:1,2011-02-03T08:00:00Z,30.6671,-87.9365,2.397,1111122 
DISL,ioos:station:DISL:MHPA:1,2011-02-03T08:30:00Z,30.6671,-87.9365,2.445,1111122 
DISL,ioos:station:DISL:MHPA:1,2011-02-03T09:00:00Z,30.6671,-87.9365,2.465,1111122 
DISL,ioos:station:DISL:MHPA:1,2011-02-03T09:30:00Z,30.6671,-87.9365,2.075,1111122 
DISL,ioos:station:DISL:MHPA:1,2011-02-03T10:00:00Z,30.6671,-87.9365,1.97,1111122 
DISL,ioos:station:DISL:MHPA:1,2011-02-03T10:30:00Z,30.6671,-87.9365,1.951,1111122 
DISL,ioos:station:DISL:MHPA:1,2011-02-03T11:00:00Z,30.6671,-87.9365,1.923,1111122 
DISL,ioos:station:DISL:MHPA:1,2011-02-03T11:30:00Z,30.6671,-87.9365,1.847,1111122 
DISL,ioos:station:DISL:MHPA:1,2011-02-03T12:00:00Z,30.6671,-87.9365,1.837,1111122 
DISL,ioos:station:DISL:MHPA:1,2011-02-03T12:30:00Z,30.6671,-87.9365,1.818,1111122 
DISL,ioos:station:DISL:MHPA:1,2011-02-03T13:00:00Z,30.6671,-87.9365,1.819,1111122 
DISL,ioos:station:DISL:MHPA:1,2011-02-03T13:30:00Z,30.6671,-87.9365,1.523,1111122 
DISL,ioos:station:DISL:MHPA:1,2011-02-03T14:00:00Z,30.6671,-87.9365,1.144,1111122 
DISL,ioos:station:DISL:MHPA:1,2011-02-03T14:30:00Z,30.6671,-87.9365,0.906,1111122 
DISL,ioos:station:DISL:MHPA:1,2011-02-03T15:00:00Z,30.6671,-87.9365,1.059,1111122 
DISL,ioos:station:DISL:MHPA:1,2011-02-03T15:30:00Z,30.6671,-87.9365,1.229,1111122 
DISL,ioos:station:DISL:MHPA:1,2011-02-03T16:00:00Z,30.6671,-87.9365,1.562,1111122 
DISL,ioos:station:DISL:MHPA:1,2011-02-03T16:30:00Z,30.6671,-87.9365,2.036,1111122 
DISL,ioos:station:DISL:MHPA:1,2011-02-03T17:00:00Z,30.6671,-87.9365,2.739,1111122 
DISL,ioos:station:DISL:MHPA:1,2011-02-03T17:30:00Z,30.6671,-87.9365,3.368,1111122 
DISL,ioos:station:DISL:MHPA:1,2011-02-03T18:00:00Z,30.6671,-87.9365,3.655,1111122 
DISL,ioos:station:DISL:MHPA:1,2011-02-03T18:30:00Z,30.6671,-87.9365,4.276,1111122 
DISL,ioos:station:DISL:MHPA:1,2011-02-03T19:00:00Z,30.6671,-87.9365,4.285,1111122 
DISL,ioos:station:DISL:MHPA:1,2011-02-03T19:30:00Z,30.6671,-87.9365,4.316,1111122 
DISL,ioos:station:DISL:MHPA:1,2011-02-03T20:00:00Z,30.6671,-87.9365,4.19,1111122 
DISL,ioos:station:DISL:MHPA:1,2011-02-03T20:30:00Z,30.6671,-87.9365,4.095,1111122 
DISL,ioos:station:DISL:MHPA:1,2011-02-03T21:00:00Z,30.6671,-87.9365,3.866,1111122 
DISL,ioos:station:DISL:MHPA:1,2011-02-03T21:30:00Z,30.6671,-87.9365,3.818,1111122 
DISL,ioos:station:DISL:MHPA:1,2011-02-03T22:00:00Z,30.6671,-87.9365,3.656,1111122 
DISL,ioos:station:DISL:MHPA:1,2011-02-03T22:30:00Z,30.6671,-87.9365,3.436,1111122 
DISL,ioos:station:DISL:MHPA:1,2011-02-03T23:00:00Z,30.6671,-87.9365,3.226,1111122 
DISL,ioos:station:DISL:MHPA:1,2011-02-03T23:30:00Z,30.6671,-87.9365,2.933,1111122 
DISL,ioos:station:DISL:MHPA:1,2011-02-04T00:00:00Z,30.6671,-87.9365,2.807,1111122 
DISL,ioos:station:DISL:MHPA:1,2011-02-04T00:30:00Z,30.6671,-87.9365,2.788,1111122 
DISL,ioos:station:DISL:MHPA:1,2011-02-04T01:00:00Z,30.6671,-87.9365,2.721,1111122 
DISL,ioos:station:DISL:MHPA:1,2011-02-04T01:30:00Z,30.6671,-87.9365,2.778,1111122 
DISL,ioos:station:DISL:MHPA:1,2011-02-04T02:00:00Z,30.6671,-87.9365,2.54,1111122 
DISL,ioos:station:DISL:MHPA:1,2011-02-04T02:30:00Z,30.6671,-87.9365,2.341,1111122 
DISL,ioos:station:DISL:MHPA:1,2011-02-04T03:00:00Z,30.6671,-87.9365,2.521,1111122 
DISL,ioos:station:DISL:MHPA:1,2011-02-04T03:30:00Z,30.6671,-87.9365,2.055,1111122 
DISL,ioos:station:DISL:MHPA:1,2011-02-04T04:00:00Z,30.6671,-87.9365,2.142,1111122 
DISL,ioos:station:DISL:MHPA:1,2011-02-04T04:30:00Z,30.6671,-87.9365,1.799,1111122 
DISL,ioos:station:DISL:MHPA:1,2011-02-04T05:00:00Z,30.6671,-87.9365,1.969,1111122 
DISL,ioos:station:DISL:MHPA:1,2011-02-04T05:30:00Z,30.6671,-87.9365,1.903,1111122 
DISL,ioos:station:DISL:MHPA:1,2011-02-04T06:00:00Z,30.6671,-87.9365,2.217,1111122 
DISL,ioos:station:DISL:MHPA:1,2011-02-04T06:30:00Z,30.6671,-87.9365,2.349,1111122 
DISL,ioos:station:DISL:MHPA:1,2011-02-04T07:00:00Z,30.6671,-87.9365,2.368,1111122 
DISL,ioos:station:DISL:MHPA:1,2011-02-04T07:30:00Z,30.6671,-87.9365,2.313,1111122 
DISL,ioos:station:DISL:MHPA:1,2011-02-04T08:00:00Z,30.6671,-87.9365,2.397,1111122 
DISL,ioos:station:DISL:MHPA:1,2011-02-04T08:30:00Z,30.6671,-87.9365,2.407,1111122 
DISL,ioos:station:DISL:MHPA:1,2011-02-04T09:00:00Z,30.6671,-87.9365,2.483,1111122 
DISL,ioos:station:DISL:MHPA:1,2011-02-04T09:30:00Z,30.6671,-87.9365,2.483,1111122 
DISL,ioos:station:DISL:MHPA:1,2011-02-04T10:00:00Z,30.6671,-87.9365,2.511,1111122 
DISL,ioos:station:DISL:MHPA:1,2011-02-04T10:30:00Z,30.6671,-87.9365,2.521,1111122 
DISL,ioos:station:DISL:MHPA:1,2011-02-04T11:00:00Z,30.6671,-87.9365,2.93,1111122 
DISL,ioos:station:DISL:MHPA:1,2011-02-04T11:30:00Z,30.6671,-87.9365,2.929,1111122 
DISL,ioos:station:DISL:MHPA:1,2011-02-04T12:00:00Z,30.6671,-87.9365,2.959,1111122 
DISL,ioos:station:DISL:MHPA:1,2011-02-04T12:30:00Z,30.6671,-87.9365,3.577,1111122 
DISL,ioos:station:DISL:MHPA:1,2011-02-04T13:00:00Z,30.6671,-87.9365,4.083,1111122 
DISL,ioos:station:DISL:MHPA:1,2011-02-04T13:30:00Z,30.6671,-87.9365,4.314,1111122 
DISL,ioos:station:DISL:MHPA:1,2011-02-04T14:00:00Z,30.6671,-87.9365,4.372,1111122 
DISL,ioos:station:DISL:MHPA:1,2011-02-04T14:30:00Z,30.6671,-87.9365,4.075,1111122 
DISL,ioos:station:DISL:MHPA:1,2011-02-04T15:00:00Z,30.6671,-87.9365,3.798,1111122 
DISL,ioos:station:DISL:MHPA:1,2011-02-04T15:30:00Z,30.6671,-87.9365,3.722,1111122 
DISL,ioos:station:DISL:MHPA:1,2011-02-04T16:00:00Z,30.6671,-87.9365,3.721,1111122 
DISL,ioos:station:DISL:MHPA:1,2011-02-04T16:30:00Z,30.6671,-87.9365,3.73,1111122 
DISL,ioos:station:DISL:MHPA:1,2011-02-04T17:00:00Z,30.6671,-87.9365,3.684,1111122 
DISL,ioos:station:DISL:MHPA:1,2011-02-04T17:30:00Z,30.6671,-87.9365,3.778,1111122 
DISL,ioos:station:DISL:MHPA:1,2011-02-04T18:00:00Z,30.6671,-87.9365,3.797,1111122 
DISL,ioos:station:DISL:MHPA:1,2011-02-04T18:30:00Z,30.6671,-87.9365,3.894,1111122 
DISL,ioos:station:DISL:MHPA:1,2011-02-04T19:00:00Z,30.6671,-87.9365,3.93,1111122 
DISL,ioos:station:DISL:MHPA:1,2011-02-04T19:30:00Z,30.6671,-87.9365,4.141,1111122 
DISL,ioos:station:DISL:MHPA:1,2011-02-04T20:00:00Z,30.6671,-87.9365,4.341,1111122 
DISL,ioos:station:DISL:MHPA:1,2011-02-04T20:30:00Z,30.6671,-87.9365,4.627,1111122 
DISL,ioos:station:DISL:MHPA:1,2011-02-04T21:00:00Z,30.6671,-87.9365,4.858,1111122 
DISL,ioos:station:DISL:MHPA:1,2011-02-04T21:30:00Z,30.6671,-87.9365,4.8,1111122 
DISL,ioos:station:DISL:MHPA:1,2011-02-04T22:00:00Z,30.6671,-87.9365,4.934,1111122 
DISL,ioos:station:DISL:MHPA:1,2011-02-04T22:30:00Z,30.6671,-87.9365,5.404,1111122 
DISL,ioos:station:DISL:MHPA:1,2011-02-04T23:00:00Z,30.6671,-87.9365,5.73,1111122 
DISL,ioos:station:DISL:MHPA:1,2011-02-04T23:30:00Z,30.6671,-87.9365,5.836,1111122 
DISL,ioos:station:DISL:MHPA:1,2011-02-05T00:00:00Z,30.6671,-87.9365,6.088,1111122 
DISL,ioos:station:DISL:MHPA:1,2011-02-05T00:30:00Z,30.6671,-87.9365,6.319,1111122 
DISL,ioos:station:DISL:MHPA:1,2011-02-05T01:00:00Z,30.6671,-87.9365,6.772,1111122 
DISL,ioos:station:DISL:MHPA:1,2011-02-05T01:30:00Z,30.6671,-87.9365,6.368,1111122 
DISL,ioos:station:DISL:MHPA:1,2011-02-05T02:00:00Z,30.6671,-87.9365,6.193,1111122 
DISL,ioos:station:DISL:MHPA:1,2011-02-05T02:30:00Z,30.6671,-87.9365,6.157,1111122 
DISL,ioos:station:DISL:MHPA:1,2011-02-05T03:00:00Z,30.6671,-87.9365,6.099,1111122 
DISL,ioos:station:DISL:MHPA:1,2011-02-05T03:30:00Z,30.6671,-87.9365,5.945,1111122 
DISL,ioos:station:DISL:MHPA:1,2011-02-05T04:00:00Z,30.6671,-87.9365,5.915,1111122 
DISL,ioos:station:DISL:MHPA:1,2011-02-05T04:30:00Z,30.6671,-87.9365,5.898,1111122 
DISL,ioos:station:DISL:MHPA:1,2011-02-05T05:00:00Z,30.6671,-87.9365,5.916,1111122 
DISL,ioos:station:DISL:MHPA:1,2011-02-05T05:30:00Z,30.6671,-87.9365,6.042,1111122 
DISL,ioos:station:DISL:MHPA:1,2011-02-05T06:00:00Z,30.6671,-87.9365,6.126,1111122 
DISL,ioos:station:DISL:MHPA:1,2011-02-05T06:30:00Z,30.6671,-87.9365,6.446,1111122 
DISL,ioos:station:DISL:MHPA:1,2011-02-05T07:00:00Z,30.6671,-87.9365,6.234,1111122 
DISL,ioos:station:DISL:MHPA:1,2011-02-05T07:30:00Z,30.6671,-87.9365,5.973,1111122 
DISL,ioos:station:DISL:MHPA:1,2011-02-05T08:00:00Z,30.6671,-87.9365,5.935,1111122 
DISL,ioos:station:DISL:MHPA:1,2011-02-05T08:30:00Z,30.6671,-87.9365,5.982,1111122 
DISL,ioos:station:DISL:MHPA:1,2011-02-05T09:00:00Z,30.6671,-87.9365,5.917,1111122 
DISL,ioos:station:DISL:MHPA:1,2011-02-05T09:30:00Z,30.6671,-87.9365,5.945,1111122 
DISL,ioos:station:DISL:MHPA:1,2011-02-05T10:00:00Z,30.6671,-87.9365,5.281,1111122 
DISL,ioos:station:DISL:MHPA:1,2011-02-05T10:30:00Z,30.6671,-87.9365,4.508,1111122 
DISL,ioos:station:DISL:MHPA:1,2011-02-05T11:00:00Z,30.6671,-87.9365,4.2,1111122 
DISL,ioos:station:DISL:MHPA:1,2011-02-05T11:30:00Z,30.6671,-87.9365,3.188,1111122 
DISL,ioos:station:DISL:MHPA:1,2011-02-05T12:00:00Z,30.6671,-87.9365,2.97,1111122 
DISL,ioos:station:DISL:MHPA:1,2011-02-05T12:30:00Z,30.6671,-87.9365,2.655,1111122 
DISL,ioos:station:DISL:MHPA:1,2011-02-05T13:00:00Z,30.6671,-87.9365,2.189,1111122 
DISL,ioos:station:DISL:MHPA:1,2011-02-05T13:30:00Z,30.6671,-87.9365,1.647,1111122 
DISL,ioos:station:DISL:MHPA:1,2011-02-05T14:00:00Z,30.6671,-87.9365,1.771,1111122 
DISL,ioos:station:DISL:MHPA:1,2011-02-05T14:30:00Z,30.6671,-87.9365,1.97,1111122 
DISL,ioos:station:DISL:MHPA:1,2011-02-05T15:00:00Z,30.6671,-87.9365,2.17,1111122 
DISL,ioos:station:DISL:MHPA:1,2011-02-05T15:30:00Z,30.6671,-87.9365,2.102,1111122 
DISL,ioos:station:DISL:MHPA:1,2011-02-05T16:00:00Z,30.6671,-87.9365,2.074,1111122 
DISL,ioos:station:DISL:MHPA:1,2011-02-05T16:30:00Z,30.6671,-87.9365,2.341,1111122 
DISL,ioos:station:DISL:MHPA:1,2011-02-05T17:00:00Z,30.6671,-87.9365,2.654,1111122 
DISL,ioos:station:DISL:MHPA:1,2011-02-05T17:30:00Z,30.6671,-87.9365,2.494,1111122 
DISL,ioos:station:DISL:MHPA:1,2011-02-05T18:00:00Z,30.6671,-87.9365,2.381,1111122 
DISL,ioos:station:DISL:MHPA:1,2011-02-05T18:30:00Z,30.6671,-87.9365,3.075,1111122 
DISL,ioos:station:DISL:MHPA:1,2011-02-05T19:00:00Z,30.6671,-87.9365,3.627,1111122 
DISL,ioos:station:DISL:MHPA:1,2011-02-05T19:30:00Z,30.6671,-87.9365,4.41,1111122 
DISL,ioos:station:DISL:MHPA:1,2011-02-05T20:00:00Z,30.6671,-87.9365,5.878,1111122 
DISL,ioos:station:DISL:MHPA:1,2011-02-05T20:30:00Z,30.6671,-87.9365,7.1,1111122 
DISL,ioos:station:DISL:MHPA:1,2011-02-05T21:00:00Z,30.6671,-87.9365,6.082,1111122 
DISL,ioos:station:DISL:MHPA:1,2011-02-05T21:30:00Z,30.6671,-87.9365,6.641,1111122 
DISL,ioos:station:DISL:MHPA:1,2011-02-05T22:00:00Z,30.6671,-87.9365,6.159,1111122 
DISL,ioos:station:DISL:MHPA:1,2011-02-05T22:30:00Z,30.6671,-87.9365,6.631,1111122 
DISL,ioos:station:DISL:MHPA:1,2011-02-05T23:00:00Z,30.6671,-87.9365,5.947,1111122 
DISL,ioos:station:DISL:MHPA:1,2011-02-05T23:30:00Z,30.6671,-87.9365,5.19,1111122 
DISL,ioos:station:DISL:MHPA:1,2011-02-06T00:00:00Z,30.6671,-87.9365,5.322,1111122 
DISL,ioos:station:DISL:MHPA:1,2011-02-06T00:30:00Z,30.6671,-87.9365,5.79,1111122 
DISL,ioos:station:DISL:MHPA:1,2011-02-06T01:00:00Z,30.6671,-87.9365,5.922,1111122 
DISL,ioos:station:DISL:MHPA:1,2011-02-06T01:30:00Z,30.6671,-87.9365,6.018,1111122 
DISL,ioos:station:DISL:MHPA:1,2011-02-06T02:00:00Z,30.6671,-87.9365,6.001,1111122 
DISL,ioos:station:DISL:MHPA:1,2011-02-06T02:30:00Z,30.6671,-87.9365,6.01,1111122 
DISL,ioos:station:DISL:MHPA:1,2011-02-06T03:00:00Z,30.6671,-87.9365,6.066,1111122 
DISL,ioos:station:DISL:MHPA:1,2011-02-06T03:30:00Z,30.6671,-87.9365,6.134,1111122 
DISL,ioos:station:DISL:MHPA:1,2011-02-06T04:00:00Z,30.6671,-87.9365,6.105,1111122 
DISL,ioos:station:DISL:MHPA:1,2011-02-06T04:30:00Z,30.6671,-87.9365,5.77,1111122 
DISL,ioos:station:DISL:MHPA:1,2011-02-06T05:00:00Z,30.6671,-87.9365,5.491,1111122 
DISL,ioos:station:DISL:MHPA:1,2011-02-06T05:30:00Z,30.6671,-87.9365,4.984,1111122 
DISL,ioos:station:DISL:MHPA:1,2011-02-06T06:00:00Z,30.6671,-87.9365,3.33,1111122 
DISL,ioos:station:DISL:MHPA:1,2011-02-06T06:30:00Z,30.6671,-87.9365,3.091,1111122 
DISL,ioos:station:DISL:MHPA:1,2011-02-06T07:00:00Z,30.6671,-87.9365,2.758,1111122 
DISL,ioos:station:DISL:MHPA:1,2011-02-06T07:30:00Z,30.6671,-87.9365,2.805,1111122 
DISL,ioos:station:DISL:MHPA:1,2011-02-06T08:00:00Z,30.6671,-87.9365,2.178,1111122 
DISL,ioos:station:DISL:MHPA:1,2011-02-06T08:30:00Z,30.6671,-87.9365,2.254,1111122 
DISL,ioos:station:DISL:MHPA:1,2011-02-06T09:00:00Z,30.6671,-87.9365,2.017,1111122 
DISL,ioos:station:DISL:MHPA:1,2011-02-06T09:30:00Z,30.6671,-87.9365,1.684,1111122 
DISL,ioos:station:DISL:MHPA:1,2011-02-06T10:00:00Z,30.6671,-87.9365,1.599,1111122 
DISL,ioos:station:DISL:MHPA:1,2011-02-06T10:30:00Z,30.6671,-87.9365,1.504,1111122 
DISL,ioos:station:DISL:MHPA:1,2011-02-06T11:00:00Z,30.6671,-87.9365,1.323,1111122 
DISL,ioos:station:DISL:MHPA:1,2011-02-06T11:30:00Z,30.6671,-87.9365,0.925,1111122 
DISL,ioos:station:DISL:MHPA:1,2011-02-06T12:00:00Z,30.6671,-87.9365,0.754,1111122 
DISL,ioos:station:DISL:MHPA:1,2011-02-06T12:30:00Z,30.6671,-87.9365,0.621,1111122 
DISL,ioos:station:DISL:MHPA:1,2011-02-06T13:00:00Z,30.6671,-87.9365,1.503,1111122 
DISL,ioos:station:DISL:MHPA:1,2011-02-06T13:30:00Z,30.6671,-87.9365,3.804,1111122 
DISL,ioos:station:DISL:MHPA:1,2011-02-06T14:00:00Z,30.6671,-87.9365,4.33,1111122 
DISL,ioos:station:DISL:MHPA:1,2011-02-06T14:30:00Z,30.6671,-87.9365,6.237,1111122 
DISL,ioos:station:DISL:MHPA:1,2011-02-06T15:00:00Z,30.6671,-87.9365,6.567,1111122 
DISL,ioos:station:DISL:MHPA:1,2011-02-06T15:30:00Z,30.6671,-87.9365,6.539,1111122 
DISL,ioos:station:DISL:MHPA:1,2011-02-06T16:00:00Z,30.6671,-87.9365,6.967,1111122 
DISL,ioos:station:DISL:MHPA:1,2011-02-06T16:30:00Z,30.6671,-87.9365,7.33,1111122 
DISL,ioos:station:DISL:MHPA:1,2011-02-06T17:00:00Z,30.6671,-87.9365,7.59,1111122 
DISL,ioos:station:DISL:MHPA:1,2011-02-06T17:30:00Z,30.6671,-87.9365,8.09,1111122 
DISL,ioos:station:DISL:MHPA:1,2011-02-06T18:00:00Z,30.6671,-87.9365,8.09,1111122 
DISL,ioos:station:DISL:MHPA:1,2011-02-06T18:30:00Z,30.6671,-87.9365,8.33,1111122 
DISL,ioos:station:DISL:MHPA:1,2011-02-06T19:00:00Z,30.6671,-87.9365,8.79,1111122 
DISL,ioos:station:DISL:MHPA:1,2011-02-06T19:30:00Z,30.6671,-87.9365,9.51,1111122 
DISL,ioos:station:DISL:MHPA:1,2011-02-06T20:00:00Z,30.6671,-87.9365,10.5,1111122 
DISL,ioos:station:DISL:MHPA:1,2011-02-06T20:30:00Z,30.6671,-87.9365,9.69,1111122 
DISL,ioos:station:DISL:MHPA:1,2011-02-06T21:00:00Z,30.6671,-87.9365,9.69,1111122 
DISL,ioos:station:DISL:MHPA:1,2011-02-06T21:30:00Z,30.6671,-87.9365,9.79,1111122 
DISL,ioos:station:DISL:MHPA:1,2011-02-06T22:00:00Z,30.6671,-87.9365,10.12,1111122 
DISL,ioos:station:DISL:MHPA:1,2011-02-06T22:30:00Z,30.6671,-87.9365,10.14,1111122 
DISL,ioos:station:DISL:MHPA:1,2011-02-06T23:00:00Z,30.6671,-87.9365,10.14,1111122 
DISL,ioos:station:DISL:MHPA:1,2011-02-06T23:30:00Z,30.6671,-87.9365,9.89,1111122 
DISL,ioos:station:DISL:MHPA:1,2011-02-07T00:00:00Z,30.6671,-87.9365,9.44,1111122 